Statesville, NC

9:58 AM EST on December 07, 2016 (GMT -0500)
Statesville Municipal

Weather History for KSVH - August, 2014

Change the Weather History Date:

Monday, August 18, 2014

  Actual Average (KHKY) Record (KHKY)
Temperature  
Mean Temperature 78 °F -  
Max Temperature 86 °F 87 °F 102 °F (1988)
Min Temperature 70 °F 66 °F 55 °F (1976)
Cooling Degree Days 13    
Growing Degree Days 28 (Base 50)    
Moisture  
Dew Point 71 °F    
Average Humidity 86    
Maximum Humidity 98    
Minimum Humidity 62    
Precipitation  
Precipitation 0.02 in - - ()
Sea Level Pressure  
Sea Level Pressure 29.89 in    
Wind  
Wind Speed 1 mph (SW)    
Max Wind Speed 13 mph    
Max Gust Speed 17 mph    
Visibility 8 miles    
Events Rain    
Averages and records for this station are not official NWS values.
T = Trace of Precipitation, MM = Missing Value Source: NWS Daily Summary

Daily Weather History Graph

Daily Weather History Graph

Search for Another Location

Airport or City:

Trip Planner

Search our weather history database for the weather conditions in past years. The results will help you decide how hot, cold, wet, or windy it might be!

Date:

Astronomy

Aug. 18, 2014 Rise Set
Actual Time 6:44 AM EDT 8:09 PM EDT
Civil Twilight 6:18 AM EDT 8:36 PM EDT
Nautical Twilight 5:45 AM EDT 9:08 PM EDT
Astronomical Twilight 5:12 AM EDT 9:42 PM EDT
Moon 12:53 AM EDT (8/18) 3:08 PM EDT (8/18)
Length of Visible Light 14h 18m
Length of Day
13h 24m
Last Quarter, 38% of the Moon is Illuminated
Aug 18
Last Quarter
Aug 25
New
Sep 2
First Quarter
Sep 8
Full
Sep 15
Last Quarter

Hourly Weather History & Observations

Time (EDT) Temp. Heat Index Dew Point Humidity Pressure Visibility Wind Dir Wind Speed Gust Speed Precip Events Conditions
12:15 AM 72.9 °F - 70.0 °F 91% 29.99 in 10.0 mi Calm Calm - N/A   Clear
12:35 AM 73.6 °F - 69.8 °F 88% 29.98 in 10.0 mi Calm Calm - N/A   Clear
12:55 AM 72.0 °F - 69.8 °F 93% 29.98 in 10.0 mi Calm Calm - N/A   Clear
1:15 AM 72.0 °F - 70.0 °F 93% 29.97 in 10.0 mi Calm Calm - N/A   Clear
1:35 AM 71.2 °F - 69.8 °F 95% 29.97 in 7.0 mi Calm Calm - N/A   Clear
1:55 AM 70.5 °F - 69.4 °F 96% 29.96 in 5.0 mi Calm Calm - N/A   Scattered Clouds
2:15 AM 71.1 °F - 69.6 °F 95% 29.95 in 7.0 mi Calm Calm - N/A   Scattered Clouds
2:35 AM 72.7 °F - 69.1 °F 88% 29.94 in 10.0 mi Calm Calm - N/A   Mostly Cloudy
2:55 AM 71.1 °F - 69.3 °F 94% 29.94 in 7.0 mi Calm Calm - N/A   Mostly Cloudy
3:15 AM 70.7 °F - 69.4 °F 96% 29.94 in 5.0 mi Calm Calm - N/A   Overcast
3:35 AM 72.5 °F - 70.0 °F 92% 29.93 in 10.0 mi Calm Calm - N/A   Overcast
3:55 AM 72.7 °F - 69.8 °F 91% 29.93 in 10.0 mi Calm Calm - N/A   Overcast
4:15 AM 72.1 °F - 70.0 °F 93% 29.94 in 10.0 mi Calm Calm - N/A   Overcast
4:35 AM 72.1 °F - 70.0 °F 93% 29.93 in 10.0 mi Calm Calm - N/A   Overcast
4:55 AM 72.5 °F - 70.0 °F 92% 29.93 in 10.0 mi Calm Calm - N/A   Overcast
5:15 AM 71.4 °F - 69.8 °F 95% 29.93 in 7.0 mi Calm Calm - N/A   Overcast
5:35 AM 71.4 °F - 69.4 °F 93% 29.92 in 7.0 mi Calm Calm - N/A   Mostly Cloudy
5:55 AM 71.6 °F - 69.4 °F 93% 29.92 in 7.0 mi Calm Calm - N/A   Mostly Cloudy
6:15 AM 70.7 °F - 69.8 °F 97% 29.92 in 5.0 mi Calm Calm - N/A   Mostly Cloudy
6:35 AM 71.6 °F - 69.8 °F 94% 29.92 in 7.0 mi Calm Calm - N/A   Mostly Cloudy
6:55 AM 71.1 °F - 69.8 °F 96% 29.92 in 5.0 mi Calm Calm - N/A   Overcast
7:15 AM 70.9 °F - 69.8 °F 96% 29.92 in 4.0 mi Calm Calm - N/A   Overcast
7:35 AM 71.2 °F - 70.0 °F 96% 29.92 in 5.0 mi Calm Calm - N/A   Mostly Cloudy
7:55 AM 71.6 °F - 70.3 °F 96% 29.92 in 5.0 mi Calm Calm - N/A   Mostly Cloudy
8:15 AM 72.1 °F - 70.7 °F 95% 29.92 in 5.0 mi Calm Calm - N/A   Mostly Cloudy
8:35 AM 72.0 °F - 70.3 °F 95% 29.93 in 5.0 mi NNW 4.6 mph - N/A Rain Light Rain
8:55 AM 71.8 °F - 70.7 °F 96% 29.93 in 4.0 mi Calm Calm - N/A Rain Light Rain
9:15 AM 72.5 °F - 70.7 °F 94% 29.92 in 5.0 mi Calm Calm - N/A   Scattered Clouds
9:35 AM 72.9 °F - 70.7 °F 93% 29.92 in 5.0 mi Calm Calm - N/A   Clear
9:55 AM 73.6 °F - 70.9 °F 91% 29.91 in 5.0 mi Calm Calm - N/A   Clear
10:15 AM 74.1 °F - 71.1 °F 90% 29.91 in 7.0 mi Calm Calm - N/A   Clear
10:35 AM 76.6 °F - 71.8 °F 85% 29.91 in 7.0 mi Calm Calm - N/A   Clear
10:55 AM 79.0 °F - 72.9 °F 81% 29.91 in 7.0 mi West 3.5 mph - N/A   Clear
11:15 AM 80.1 °F 84.1 °F 72.7 °F 78% 29.91 in 10.0 mi Calm Calm - N/A   Clear
11:35 AM 81.9 °F 86.8 °F 72.5 °F 73% 29.90 in 10.0 mi SSW 5.8 mph - N/A   Clear
11:55 AM 82.2 °F 87.1 °F 72.0 °F 71% 29.90 in 10.0 mi WSW 6.9 mph - N/A   Clear
12:15 PM 83.1 °F 88.6 °F 72.5 °F 70% 29.90 in 10.0 mi West 6.9 mph - N/A   Scattered Clouds
12:35 PM 82.0 °F 86.7 °F 71.6 °F 71% 29.90 in 10.0 mi SSW 5.8 mph - N/A   Mostly Cloudy
12:55 PM 80.8 °F 84.7 °F 71.4 °F 73% 29.90 in 10.0 mi SSW 5.8 mph - N/A   Mostly Cloudy
1:15 PM 80.8 °F 84.9 °F 71.8 °F 74% 29.89 in 10.0 mi SSW 6.9 mph - N/A   Mostly Cloudy
1:35 PM 81.9 °F 86.8 °F 72.5 °F 73% 29.88 in 10.0 mi SSW 4.6 mph - N/A   Scattered Clouds
1:55 PM 83.1 °F 88.4 °F 72.0 °F 69% 29.87 in 10.0 mi WSW 9.2 mph - N/A   Scattered Clouds
2:15 PM 82.6 °F 87.8 °F 72.1 °F 71% 29.86 in 10.0 mi SW 8.1 mph - N/A   Scattered Clouds
2:35 PM 85.6 °F 92.2 °F 72.7 °F 65% 29.86 in 10.0 mi WSW 5.8 mph 9.2 mph N/A   Scattered Clouds
2:55 PM 84.7 °F 90.7 °F 72.1 °F 66% 29.84 in 10.0 mi SSW 4.6 mph - N/A   Scattered Clouds
3:15 PM 86.5 °F 92.9 °F 72.1 °F 62% 29.82 in 10.0 mi West 12.7 mph 17.3 mph N/A   Scattered Clouds
3:55 PM 86.2 °F 92.6 °F 72.3 °F 63% 29.81 in 10.0 mi SSW 6.9 mph - N/A   Scattered Clouds
4:35 PM 85.3 °F 91.1 °F 72.0 °F 64% 29.80 in 10.0 mi South 5.8 mph - N/A   Overcast
4:55 PM 85.5 °F 91.5 °F 72.0 °F 64% 29.80 in 10.0 mi WSW 6.9 mph - N/A   Overcast
5:15 PM 80.1 °F 83.4 °F 70.5 °F 73% 29.81 in 10.0 mi NNW 6.9 mph - N/A   Overcast
5:35 PM 78.1 °F - 72.0 °F 81% 29.81 in 5.0 mi North 5.8 mph - 0.02 in Rain Light Rain
5:55 PM 77.9 °F - 72.5 °F 83% 29.82 in 10.0 mi ENE 3.5 mph - 0.02 in   Overcast
6:15 PM 77.4 °F - 72.1 °F 84% 29.83 in 10.0 mi Calm Calm - N/A   Mostly Cloudy
6:35 PM 78.8 °F - 72.3 °F 80% 29.83 in 10.0 mi ESE 3.5 mph - N/A   Mostly Cloudy
6:55 PM 77.9 °F - 72.7 °F 84% 29.83 in 10.0 mi Calm Calm - N/A   Scattered Clouds
7:15 PM 78.8 °F - 72.7 °F 81% 29.83 in 10.0 mi Calm Calm - N/A   Scattered Clouds
7:35 PM 77.9 °F - 73.2 °F 85% 29.83 in 10.0 mi Calm Calm - N/A   Scattered Clouds
7:55 PM 76.5 °F - 72.7 °F 88% 29.83 in 10.0 mi Calm Calm - N/A   Scattered Clouds
8:15 PM 75.6 °F - 72.1 °F 89% 29.83 in 10.0 mi Calm Calm - N/A   Clear
8:35 PM 75.0 °F - 72.1 °F 91% 29.83 in 10.0 mi Calm Calm - N/A   Clear
8:55 PM 74.7 °F - 72.1 °F 92% 29.83 in 10.0 mi Calm Calm - N/A   Mostly Cloudy
9:15 PM 74.5 °F - 72.0 °F 92% 29.83 in 10.0 mi SW 3.5 mph - N/A   Overcast
9:35 PM 75.0 °F - 72.0 °F 90% 29.84 in 10.0 mi WSW 4.6 mph - N/A   Overcast
9:55 PM 74.5 °F - 72.0 °F 92% 29.84 in 10.0 mi Calm Calm - N/A   Scattered Clouds
10:15 PM 73.6 °F - 71.6 °F 93% 29.85 in 10.0 mi Calm Calm - N/A   Clear
10:35 PM 72.5 °F - 71.4 °F 96% 29.86 in 10.0 mi Calm Calm - N/A   Clear
10:55 PM 72.3 °F - 71.2 °F 96% 29.85 in 7.0 mi Calm Calm - N/A   Clear
11:15 PM 70.9 °F - 70.2 °F 98% 29.85 in 7.0 mi SW 3.5 mph - N/A   Clear
11:35 PM 72.7 °F - 70.2 °F 92% 29.84 in 10.0 mi SSW 3.5 mph - N/A   Clear